Date String (YYYY-MM-DD hh:mm:ss) UTC,Instrument flags,Ambient pressure (hPa),Sample flow (lpm),Bypass flow (lpm),Sample temperature (°C),Ambient temperature (°C),ASC tube jacket temperature (°C),LED temperature (°C),Box temperature (°C),Sample RH (%),Span deviation,Mass concentration (μg/m³),Mass concentration (μg/m³),Mass concentration (μg/m³)
DateTimeUTC,F1_M11,P_M11,Q1_M11,Q2_M11,T1_M11,T2_M11,T3_M11,T4_M11,T5_M11,U1_M11,ZSPAN_M11,X0_M11,X2_M11,X1_M11
2022-06-07 02:00:00,,0822.9,4.99,0.00,29.8,28.9,00.0,38.6,31.7,22.7,0000.0,0009.18,0002.75,0001.19
2022-06-07 02:01:00,,0822.9,4.99,0.00,29.8,29.0,00.0,38.6,31.8,22.9,0000.0,0009.39,0002.84,0001.20
2022-06-07 02:02:00,,0823.0,5.00,0.00,29.8,28.8,00.0,38.6,31.7,22.4,0000.0,0009.29,0002.80,0001.20
2022-06-07 02:03:00,,0823.0,5.00,0.00,29.8,28.0,00.0,38.5,31.5,22.4,0000.0,0009.24,0002.85,0001.22
2022-06-07 02:04:00,,0822.9,5.01,0.00,29.7,27.5,00.0,38.5,31.4,22.2,0000.0,0009.10,0002.86,0001.21
2022-06-07 02:05:00,,0822.9,4.99,0.00,29.6,27.4,00.0,38.4,31.3,22.2,0000.0,0009.05,0002.83,0001.20
2022-06-07 02:06:00,,0822.8,5.01,0.00,29.5,27.4,00.0,38.4,31.2,22.6,0000.0,0008.96,0002.77,0001.17
2022-06-07 02:07:00,,0822.7,4.99,0.00,29.5,27.6,00.0,38.4,31.3,22.9,0000.0,0008.81,0002.67,0001.16
2022-06-07 02:08:00,,0822.7,5.01,0.00,29.5,27.7,00.0,38.4,31.3,22.9,0000.0,0008.19,0002.63,0001.14
2022-06-07 02:09:00,,0822.6,5.01,0.00,29.5,27.8,00.0,38.4,31.3,22.5,0000.0,0008.08,0002.61,0001.13
2022-06-07 02:10:00,,0822.6,4.99,0.00,29.5,28.0,00.0,38.4,31.3,22.6,0000.0,0008.74,0002.59,0001.11
2022-06-07 02:11:00,,0822.6,5.02,0.00,29.5,28.1,00.0,38.4,31.4,22.4,0000.0,0007.69,0002.58,0001.10
2022-06-07 02:12:00,,0822.5,4.99,0.00,29.5,28.2,00.0,38.4,31.4,22.3,0000.0,0007.66,0002.54,0001.09
2022-06-07 02:13:00,,0822.5,4.99,0.00,29.5,28.3,00.0,38.4,31.4,22.1,0000.0,0007.72,0002.52,0001.10
2022-06-07 02:14:00,,0822.6,4.99,0.00,29.5,28.4,00.0,38.4,31.4,21.7,0000.0,0007.61,0002.45,0001.08
2022-06-07 02:15:00,,0822.7,5.01,0.00,29.6,28.5,00.0,38.4,31.5,21.7,0000.0,0007.47,0002.37,0001.08
2022-06-07 02:16:00,,0822.7,5.00,0.00,29.6,28.5,00.0,38.4,31.5,22.0,0000.0,0007.41,0002.30,0001.08
2022-06-07 02:17:00,,0822.8,4.99,0.00,29.6,28.6,00.0,38.4,31.5,22.7,0000.0,0007.41,0002.30,0001.09
2022-06-07 02:18:00,,0822.9,5.00,0.00,29.6,28.6,00.0,38.5,31.6,22.4,0000.0,0007.52,0002.37,0001.10
2022-06-07 02:19:00,,0822.9,5.01,0.00,29.7,28.7,00.0,38.5,31.6,21.8,0000.0,0007.49,0002.41,0001.10
2022-06-07 02:20:00,,0823.0,5.00,0.00,29.7,28.7,00.0,38.5,31.6,21.9,0000.0,0007.43,0002.44,0001.10
2022-06-07 02:21:00,,0822.9,4.99,0.00,29.7,28.8,00.0,38.5,31.6,23.1,0000.0,0006.22,0002.47,0001.10
2022-06-07 02:22:00,,0822.8,4.99,0.00,29.7,28.8,00.0,38.5,31.7,23.0,0000.0,0006.26,0002.41,0001.08
2022-06-07 02:23:00,,0822.7,5.00,0.00,29.7,28.8,00.0,38.5,31.7,22.5,0000.0,0006.15,0002.44,0001.08
2022-06-07 02:24:00,,0823.0,5.00,0.00,29.8,28.9,00.0,38.6,31.7,22.1,0000.0,0006.24,0002.46,0001.08
2022-06-07 02:25:00,,0822.8,5.01,0.00,29.8,28.9,00.0,38.6,31.7,22.0,0000.0,0006.50,0002.51,0001.09
2022-06-07 02:26:00,,0822.7,5.00,0.00,29.8,29.0,00.0,38.6,31.8,21.9,0000.0,0006.57,0002.53,0001.08
2022-06-07 02:27:00,,0822.8,5.00,0.00,29.8,28.8,00.0,38.6,31.7,22.0,0000.0,0006.53,0002.56,0001.09
2022-06-07 02:28:00,,0822.8,5.00,0.00,29.8,28.0,00.0,38.5,31.5,22.6,0000.0,0007.12,0002.70,0001.10
2022-06-07 02:29:00,,0822.8,5.00,0.00,29.7,27.5,00.0,38.5,31.3,22.9,0000.0,0007.09,0002.64,0001.07
2022-06-07 02:30:00,,0822.9,5.00,0.00,29.6,27.4,00.0,38.5,31.3,22.9,0000.0,0007.15,0002.60,0001.06
2022-06-07 02:31:00,,0823.0,5.00,0.00,29.5,27.4,00.0,38.4,31.2,22.8,0000.0,0007.46,0002.58,0001.05
2022-06-07 02:32:00,,0822.9,4.99,0.00,29.5,27.5,00.0,38.4,31.2,22.4,0000.0,0007.46,0002.59,0001.05
2022-06-07 02:33:00,,0823.1,4.99,0.00,29.5,27.6,00.0,38.4,31.3,22.2,0000.0,0007.22,0002.60,0001.06
2022-06-07 02:34:00,,0823.1,5.02,0.00,29.5,27.8,00.0,38.4,31.3,21.7,0000.0,0007.33,0002.58,0001.05
2022-06-07 02:35:00,,0823.1,5.01,0.00,29.5,27.9,00.0,38.4,31.3,21.4,0000.0,0007.16,0002.53,0001.03
2022-06-07 02:36:00,,0823.1,5.00,0.00,29.5,28.0,00.0,38.4,31.3,21.6,0000.0,0007.56,0002.49,0001.01
2022-06-07 02:37:00,,0823.1,4.99,0.00,29.5,28.1,00.0,38.4,31.4,22.3,0000.0,0008.11,0002.54,0001.02
2022-06-07 02:38:00,,0823.1,5.01,0.00,29.5,28.2,00.0,38.4,31.4,22.3,0000.0,0008.67,0002.53,0001.02
2022-06-07 02:39:00,,0823.1,5.00,0.00,29.5,28.3,00.0,38.4,31.4,22.0,0000.0,0008.73,0002.40,0001.01
2022-06-07 02:40:00,,0823.1,5.00,0.00,29.5,28.4,00.0,38.4,31.4,21.7,0000.0,0008.90,0002.45,0001.02
2022-06-07 02:41:00,,0823.1,4.99,0.00,29.6,28.5,00.0,38.4,31.5,22.1,0000.0,0008.95,0002.45,0001.04
2022-06-07 02:42:00,,0823.1,4.99,0.00,29.6,28.5,00.0,38.4,31.5,22.7,0000.0,0008.62,0002.40,0001.04
2022-06-07 02:43:00,,0823.2,5.00,0.00,29.6,28.6,00.0,38.4,31.5,22.8,0000.0,0008.44,0002.35,0001.03
2022-06-07 02:44:00,,0823.1,5.01,0.00,29.6,28.6,00.0,38.4,31.5,22.2,0000.0,0008.47,0002.41,0001.02
2022-06-07 02:45:00,,0823.1,5.00,0.00,29.6,28.7,00.0,38.5,31.6,21.8,0000.0,0008.50,0002.42,0001.04
2022-06-07 02:46:00,,0823.1,4.98,0.00,29.7,28.7,00.0,38.5,31.6,21.6,0000.0,0008.44,0002.41,0001.04
2022-06-07 02:47:00,,0823.1,5.01,0.00,29.7,28.7,00.0,38.5,31.6,21.1,0000.0,0008.14,0002.44,0001.05
2022-06-07 02:48:00,,0822.9,5.00,0.00,29.7,28.8,00.0,38.5,31.6,20.8,0000.0,0007.51,0002.39,0001.04
2022-06-07 02:49:00,,0822.9,5.00,0.00,29.7,28.8,00.0,38.5,31.7,21.2,0000.0,0006.77,0002.36,0001.04
2022-06-07 02:50:00,,0822.9,4.99,0.00,29.7,28.8,00.0,38.5,31.7,21.7,0000.0,0006.36,0002.40,0001.02
2022-06-07 02:51:00,,0822.8,5.00,0.00,29.8,28.9,00.0,38.6,31.7,22.6,0000.0,0006.04,0002.36,0001.03
2022-06-07 02:52:00,,0822.9,5.00,0.00,29.8,28.9,00.0,38.6,31.7,22.8,0000.0,0006.18,0002.41,0001.02
2022-06-07 02:53:00,,0823.0,5.01,0.00,29.8,28.9,00.0,38.6,31.7,22.9,0000.0,0006.74,0002.51,0001.02
2022-06-07 02:54:00,,0822.9,5.00,0.00,29.8,28.9,00.0,38.6,31.7,22.7,0000.0,0007.51,0002.57,0001.03
2022-06-07 02:55:00,,0823.0,5.00,0.00,29.8,28.9,00.0,38.6,31.8,22.4,0000.0,0007.76,0002.57,0001.04
2022-06-07 02:56:00,,0823.0,4.99,0.00,29.8,29.0,00.0,38.7,31.7,22.5,0000.0,0007.64,0002.56,0001.04
2022-06-07 02:57:00,,0823.0,5.00,0.00,29.8,28.7,00.0,38.6,31.7,22.6,0000.0,0007.66,0002.62,0001.06
2022-06-07 02:58:00,,0823.1,5.00,0.00,29.8,27.8,00.0,38.5,31.5,22.7,0000.0,0007.55,0002.63,0001.07
2022-06-07 02:59:00,,0823.1,5.01,0.00,29.7,27.3,00.0,38.5,31.3,22.7,0000.0,0007.50,0002.64,0001.09
